Location: Berkeley
(37.8716°N, 122.2727°W)
Time: 23:08:13
(UTC-07:00)

Tiangong 2 - Visible Passes

Search period start: 20 August 2018 00:00
Search period end: 30 August 2018 00:00
Orbit: 384 x 395 km, 42.8° (Epoch: 20 August)

Date Brightness Start Highest point End Pass type
(mag) Time Alt. Az. Time Alt. Az. Time Alt. Az.
20 Aug 1.4 04:48:39 51° NW 04:48:59 54° NNW 04:52:09 10° ENE visible
21 Aug 4.0 03:53:24 17° ENE 03:53:24 17° ENE 03:54:16 10° ENE visible
21 Aug 2.5 05:25:43 13° WNW 05:28:10 33° N 05:31:08 10° ENE visible
22 Aug 2.4 04:30:29 37° N 04:30:29 37° N 04:33:12 10° ENE visible
23 Aug 4.7 03:35:16 10° ENE 03:35:16 10° ENE 03:35:18 10° ENE visible
23 Aug 2.6 05:07:35 18° NW 05:09:23 32° N 05:12:18 10° ENE visible
24 Aug 3.4 04:12:25 25° NE 04:12:25 25° NE 04:14:17 10° ENE visible
24 Aug 2.2 05:45:31 10° WNW 05:48:35 43° NNE 05:51:41 10° E visible
25 Aug 2.5 04:49:39 28° NNW 04:50:34 35° N 04:53:33 10° ENE visible
26 Aug 4.2 03:54:40 15° ENE 03:54:40 15° ENE 03:55:26 10° ENE visible
26 Aug 1.4 05:27:01 14° WNW 05:29:40 65° NNE 05:32:51 10° ESE visible
27 Aug 2.4 04:32:11 41° NE 04:32:11 41° NE 04:34:46 10° E visible
27 Aug 1.6 06:05:30 10° W 06:08:31 40° SSW 06:11:33 10° SE visible
28 Aug 0.9 05:09:53 47° W 05:10:39 72° SSW 05:13:50 10° ESE visible
29 Aug 4.1 04:15:28 13° ESE 04:15:28 13° ESE 04:15:53 10° ESE visible
29 Aug 2.5 05:47:51 15° WSW 05:49:20 21° SW 05:51:49 10° SSE visible
